[[{"header":{"parameterUnit":"m.s-1","parameterCategory":1,"la1":30.2991,"la2":30.254,"lo1":-89.0895,"lo2":-89.0444,"dy":0.0017,"dx":0.0017,"nx":28,"ny":28,"refTime":"2024-08-26T09:00:00:Z","depth":0,"parameterNumber":2,"parameterNumberName":"U-component_of_WINDS"},"data":[0,0,0,0,0,0,0,0,0,0,0,0,0,0,0,0,0,0,0,0,0,0,0,0,0,0,0,0,0,0,0,0,0,0,0,0,0,0,0,0,0,0,0,0,0,0,0,0,0,0,0,0,0,0,0,0,0,0,0.6829,0.683,0,0.6854,0.6854,0.6854,0.6886,0.6886,0.6887,0.6887,0.691,0.691,0.691,0,0,0,0,0,0,0,0,0,0,0,0,0,0.6808,0.6808,0.6829,0.683,0.683,0.6854,0.6854,0.6854,0.6886,0.6886,0.6887,0.6888,0.691,0.691,0.691,0,0,0,0,0,0,0,0,0,0,0,0,0,0.6823,0.6808,0.6829,0.6849,0.6851,0.6854,0.6854,0.6854,0.6886,0.6886,0.6887,0.6888,0.691,0.691,0.691,0.6896,0,0,0.6911,0.6911,0,0,0,0,0,0,0,0,0.6822,0.6824,0.6845,0.6847,0.6849,0.6868,0.6855,0.6868,0.6885,0.6872,0.6887,0.6888,0.6895,0.6897,0.6899,0.6897,0.6898,0.6911,0.6911,0.6911,0.6911,0,0,0,0,0,0,0,0.6821,0.6823,0.6839,0.6846,0.6848,0.6855,0.6858,0.6857,0.6879,0.6873,0.6876,0.6878,0.6896,0.6899,0.69,0.6898,0.6911,0.6911,0.6911,0.6911,0.6884,0.6883,0,0,0,0,0,0,0.6817,0.6822,0.6838,0.684,0.6837,0.6855,0.6858,0.6861,0.6879,0.6883,0.6878,0.688,0.6899,0.69,0.6901,0.6884,0.6911,0.6911,0.6911,0.6885,0.6884,0.6883,0,0,0,0,0,0,0.6817,0.6818,0.6837,0.6831,0.6834,0.6855,0.6857,0.6861,0.6864,0.6882,0.6886,0.6877,0.6899,0.6901,0.6897,0.6885,0.6911,0.6912,0.6886,0.6884,0.6883,0.6851,0,0,0,0,0,0,0.6816,0.6818,0.6813,0.6831,0.6834,0.6833,0.6857,0.6861,0.6864,0.6867,0.6882,0.6886,0.69,0.6896,0.6897,0.6886,0.6912,0.6887,0.6885,0.6884,0.6853,0.6849,0.6845,0,0,0,0,0,0.6815,0.6803,0.6813,0.6815,0.6829,0.6832,0.6834,0.6852,0.6863,0.6858,0.687,0.6885,0.6887,0.6896,0.6897,0.6886,0.6888,0.6886,0.6884,0.6855,0.6849,0.6845,0,0,0,0,0,0,0.6782,0.6805,0.6817,0.681,0.6819,0.6838,0.6832,0.6846,0.6851,0.6853,0.6874,0.6877,0.687,0.6878,0.6887,0.6872,0.689,0.6888,0.6867,0.6862,0.6858,0.6856,0.6912,0,0,0,0,0,0.6774,0.6776,0.6796,0.6788,0.6792,0.6811,0.6813,0.6826,0.6836,0.6839,0.6851,0.6859,0.6862,0.6863,0.6866,0.6855,0.6858,0.6848,0.6844,0.684,0.6838,0.6831,0.6827,0.6877,0.6877,0.6877,0,0,0.6758,0.6771,0.677,0.6782,0.679,0.679,0.6814,0.6813,0.6813,0.6839,0.6836,0.6845,0.6855,0.6847,0.6844,0.6853,0.6825,0.6838,0.6835,0.6834,0.6829,0.6824,0.682,0.6875,0.6876,0.6876,0,0,0.6727,0.6738,0.6732,0.674,0.6753,0.6766,0.6764,0.6781,0.6788,0.6785,0.6804,0.6804,0.6808,0.6815,0.6819,0.6791,0.6804,0.6791,0.6769,0.6763,0.6759,0.6755,0.6744,0.674,0.6789,0.6789,0.6789,0,0.6704,0.6706,0.6727,0.6725,0.6729,0.6753,0.6747,0.6753,0.6766,0.6768,0.6779,0.6784,0.6793,0.6786,0.6779,0.6782,0.678,0.6789,0.6758,0.6755,0.6752,0.6741,0.6737,0.6787,0.6788,0.6788,0.6788,0,0.6677,0.6678,0.6671,0.6684,0.6687,0.6683,0.6702,0.6703,0.6716,0.6727,0.6723,0.6735,0.6741,0.6741,0.6753,0.6735,0.6741,0.6754,0.6772,0.6745,0.6735,0.6731,0.6785,0.6786,0.6786,0.6787,0,0,0.6624,0.6649,0.6646,0.6652,0.6668,0.6668,0.6665,0.6671,0.6671,0.668,0.6676,0.6679,0.6692,0.6696,0.671,0.6704,0.6679,0.6718,0.6719,0.6709,0.6659,0.6647,0.6642,0.6689,0.6689,0.6688,0.6657,0,0.6595,0.6591,0.661,0.6601,0.6601,0.6625,0.6622,0.6631,0.6641,0.6643,0.6655,0.6656,0.6673,0.6676,0.6672,0.6683,0.6669,0.6686,0.6685,0.6684,0.6679,0.6637,0.6625,0.6595,0.6654,0.6653,0.6653,0,0.6561,0.6567,0.6558,0.6574,0.6575,0.6572,0.6579,0.6581,0.6591,0.6599,0.6604,0.662,0.6617,0.6635,0.663,0.6641,0.6642,0.6648,0.6647,0.6646,0.6665,0.6633,0.6586,0.6581,0.6647,0.6648,0.6648,0,0.6521,0.6528,0.6523,0.6528,0.6547,0.6544,0.6552,0.6564,0.6566,0.6572,0.6573,0.6579,0.6581,0.6585,0.6601,0.6613,0.6594,0.6614,0.6599,0.6598,0.6592,0.6592,0.6543,0.6596,0.6596,0.6596,0.6596,0,0.6485,0.6478,0.6506,0.6502,0.6495,0.6517,0.6508,0.6519,0.6529,0.6527,0.6549,0.6546,0.6569,0.6569,0.6582,0.6575,0.6577,0.6582,0.6585,0.6579,0.6578,0.6578,0.658,0.6595,0.6595,0.6596,0.6596,0,0.6439,0.6457,0.6453,0.6472,0.6477,0.647,0.6486,0.6484,0.6496,0.6494,0.6495,0.6514,0.6515,0.6533,0.6538,0.6546,0.6533,0.6541,0.653,0.6531,0.6515,0.6515,0.6462,0.6456,0.6515,0.6515,0.6514,0,0.6414,0.6409,0.6428,0.6429,0.6435,0.6437,0.6439,0.6461,0.6463,0.6474,0.647,0.6473,0.6477,0.6477,0.6491,0.6495,0.6502,0.6483,0.6502,0.6496,0.6499,0.6498,0.6497,0.6478,0.6477,0.6477,0.6476,0,0.6367,0.6376,0.638,0.6386,0.6389,0.6395,0.6403,0.6402,0.6425,0.6426,0.6428,0.6431,0.6436,0.6438,0.6445,0.6452,0.6467,0.6471,0.6467,0.6459,0.6452,0.6454,0.6516,0.6471,0.6472,0.6472,0.6472,0.6473,0.6329,0.6325,0.6338,0.6341,0.6349,0.6355,0.6353,0.6366,0.6368,0.6374,0.6387,0.6387,0.6397,0.6407,0.6413,0.6413,0.6422,0.6417,0.6416,0.6414,0.6409,0.6454,0.6414,0.6414,0.6415,0.6415,0.6415,0,0.6281,0.629,0.6293,0.6303,0.6305,0.6321,0.633,0.6331,0.633,0.6339,0.6343,0.6344,0.6347,0.6361,0.6365,0.6362,0.6369,0.6362,0.6361,0.6362,0.6402,0.6404,0.6356,0.6356,0.6356,0.6356,0.6356,0.6356,0.6256,0.625,0.6261,0.626,0.6269,0.6269,0.6273,0.6279,0.6286,0.6287,0.6289,0.6299,0.631,0.6315,0.6318,0.6322,0.6321,0.6311,0.6317,0.6354,0.6359,0.6365,0.6366,0.6312,0.6311,0.6277,0.6277,0.6277]},{"header":{"parameterUnit":"m.s-1","parameterCategory":1,"la1":30.2991,"la2":30.254,"lo1":-89.0895,"lo2":-89.0444,"dy":0.0017,"dx":0.0017,"nx":28,"ny":28,"refTime":"2024-08-26T09:00:00:Z","depth":0,"parameterNumber":3,"parameterNumberName":"V-component_of_WINDS"},"data":[0,0,0,0,0,0,0,0,0,0,0,0,0,0,0,0,0,0,0,0,0,0,0,0,0,0,0,0,0,0,0,0,0,0,0,0,0,0,0,0,0,0,0,0,0,0,0,0,0,0,0,0,0,0,0,0,0,0,0.7348,0.7347,0,0.7303,0.7303,0.7302,0.7271,0.7271,0.7271,0.7271,0.7222,0.7221,0.722,0,0,0,0,0,0,0,0,0,0,0,0,0,0.7403,0.7402,0.7348,0.7347,0.7347,0.7303,0.7303,0.7302,0.7271,0.7271,0.7271,0.727,0.7222,0.7221,0.722,0,0,0,0,0,0,0,0,0,0,0,0,0,0.7371,0.7402,0.7348,0.7326,0.7324,0.7304,0.7303,0.7302,0.7271,0.7271,0.7271,0.727,0.7223,0.7221,0.7219,0.7216,0,0,0.7214,0.7214,0,0,0,0,0,0,0,0,0.7373,0.7369,0.733,0.7328,0.7325,0.7293,0.7304,0.7273,0.7271,0.7291,0.7271,0.727,0.7245,0.7242,0.7234,0.7214,0.7212,0.7214,0.7213,0.7213,0.7212,0,0,0,0,0,0,0,0.7375,0.7371,0.733,0.7329,0.7326,0.7318,0.7313,0.7298,0.7271,0.7289,0.7287,0.7282,0.7244,0.7236,0.7233,0.7211,0.7214,0.7213,0.7212,0.7211,0.7186,0.7186,0,0,0,0,0,0,0.7381,0.7373,0.7332,0.7329,0.7349,0.7317,0.7311,0.7303,0.7271,0.7266,0.7283,0.7281,0.7239,0.7235,0.7231,0.7225,0.7213,0.7211,0.721,0.7185,0.7186,0.7186,0,0,0,0,0,0,0.7383,0.7378,0.7333,0.735,0.7344,0.7316,0.7308,0.7303,0.7294,0.7266,0.726,0.728,0.7238,0.7233,0.722,0.7223,0.721,0.7209,0.7185,0.7185,0.7186,0.7213,0,0,0,0,0,0,0.7384,0.7379,0.7378,0.735,0.7343,0.7325,0.7308,0.7302,0.7292,0.729,0.7262,0.7256,0.7238,0.7223,0.7219,0.722,0.7208,0.7185,0.7185,0.7186,0.7212,0.7214,0.7217,0,0,0,0,0,0.7386,0.7387,0.7378,0.7373,0.7342,0.7325,0.732,0.73,0.7293,0.7291,0.7272,0.7257,0.7223,0.7222,0.7217,0.7218,0.7184,0.7185,0.7186,0.7211,0.7214,0.7216,0,0,0,0,0,0,0.7414,0.7383,0.7373,0.7364,0.7348,0.732,0.7317,0.7304,0.7288,0.7286,0.726,0.7254,0.7243,0.7229,0.7228,0.7213,0.7202,0.7202,0.7223,0.7225,0.7228,0.7231,0.7206,0,0,0,0,0,0.7419,0.7409,0.7382,0.7377,0.7369,0.7345,0.7337,0.7322,0.7303,0.7296,0.7276,0.7258,0.7243,0.7233,0.7218,0.721,0.7203,0.7208,0.721,0.7212,0.7212,0.7206,0.7208,0.7188,0.7188,0.7188,0,0,0.743,0.7412,0.7406,0.7382,0.7368,0.7357,0.7339,0.7328,0.7319,0.7294,0.728,0.7266,0.7243,0.7232,0.7227,0.722,0.7216,0.7213,0.7215,0.7214,0.7207,0.7209,0.7211,0.7189,0.7188,0.7188,0,0,0.7444,0.7429,0.7423,0.7409,0.7387,0.7371,0.737,0.7344,0.7333,0.732,0.73,0.7289,0.7264,0.7248,0.7237,0.7245,0.723,0.724,0.7253,0.7247,0.7249,0.725,0.7252,0.7253,0.7241,0.7241,0.7241,0,0.7459,0.7443,0.7422,0.7412,0.7402,0.7379,0.7372,0.7359,0.7333,0.7326,0.732,0.7288,0.7271,0.7256,0.7258,0.725,0.7247,0.7243,0.7251,0.7252,0.7252,0.7254,0.7255,0.7242,0.7242,0.7242,0.7242,0,0.7463,0.7452,0.7449,0.7426,0.7415,0.7407,0.7384,0.7376,0.7362,0.7346,0.7332,0.7311,0.7291,0.7287,0.7273,0.727,0.7266,0.7256,0.7244,0.7256,0.7257,0.7258,0.7244,0.7243,0.7243,0.7243,0,0,0.7492,0.7458,0.7457,0.7446,0.742,0.7411,0.7401,0.7383,0.7376,0.7358,0.7349,0.7329,0.7318,0.7306,0.729,0.7285,0.7292,0.7275,0.7274,0.7278,0.7287,0.7295,0.7296,0.7282,0.7282,0.7283,0.7288,0,0.7502,0.7485,0.7465,0.7455,0.7444,0.7422,0.7413,0.7396,0.7381,0.7369,0.7351,0.7337,0.7325,0.7317,0.7312,0.7293,0.7293,0.7292,0.7273,0.7272,0.7279,0.7297,0.7305,0.7312,0.7289,0.7289,0.7289,0,0.751,0.7495,0.7484,0.7459,0.7453,0.7446,0.7428,0.7416,0.7396,0.7385,0.7371,0.7355,0.7343,0.7333,0.7315,0.7315,0.7305,0.7295,0.7295,0.7292,0.7281,0.7294,0.7314,0.7315,0.729,0.729,0.7289,0,0.7533,0.7509,0.7499,0.749,0.7461,0.7457,0.7444,0.7424,0.7414,0.7397,0.739,0.7371,0.7361,0.7347,0.7325,0.732,0.731,0.7298,0.73,0.73,0.7298,0.7298,0.7316,0.7293,0.7293,0.7293,0.7293,0,0.7545,0.7539,0.7509,0.7503,0.7495,0.7472,0.7464,0.745,0.7432,0.7421,0.7401,0.7392,0.7364,0.7351,0.7334,0.7322,0.7317,0.7307,0.7303,0.7309,0.731,0.7302,0.7301,0.7293,0.7293,0.7293,0.7293,0,0.7568,0.7548,0.7536,0.751,0.7503,0.7498,0.7475,0.7467,0.7451,0.7439,0.7434,0.7408,0.7392,0.7369,0.7346,0.7334,0.7324,0.7317,0.7331,0.7328,0.7331,0.7331,0.7344,0.7345,0.7322,0.7322,0.7322,0,0.7577,0.7572,0.7545,0.7538,0.7526,0.7514,0.7504,0.7481,0.7471,0.7447,0.7443,0.7425,0.741,0.7384,0.7363,0.7344,0.7337,0.7342,0.7334,0.734,0.7336,0.7337,0.7336,0.7344,0.7345,0.7345,0.7345,0,0.7595,0.7586,0.7572,0.7556,0.7544,0.753,0.7514,0.7508,0.7482,0.7472,0.7455,0.7444,0.742,0.7402,0.7381,0.7367,0.7352,0.7348,0.7348,0.7354,0.7362,0.7357,0.7337,0.7348,0.7348,0.7348,0.7348,0.7347,0.7611,0.7606,0.7586,0.7572,0.7558,0.7544,0.7535,0.7518,0.7505,0.7484,0.7472,0.7456,0.7435,0.7405,0.7391,0.7378,0.7372,0.7371,0.737,0.7371,0.7372,0.7365,0.7374,0.7374,0.7374,0.7374,0.7374,0,0.7628,0.7614,0.7601,0.7581,0.7569,0.7557,0.7539,0.753,0.7516,0.7499,0.7484,0.7465,0.7448,0.7425,0.7406,0.74,0.7392,0.7395,0.7395,0.7392,0.7379,0.7382,0.7402,0.7402,0.7402,0.7402,0.7402,0.7402,0.7635,0.7625,0.7613,0.7595,0.7581,0.7566,0.7557,0.7543,0.7529,0.7509,0.7495,0.7481,0.746,0.744,0.7423,0.7417,0.741,0.7416,0.7407,0.7396,0.7393,0.7391,0.7393,0.7415,0.7415,0.7421,0.7421,0.7421]}]]